Location: Tierz
(42.1336°N, 0.3549°W)
Time: 11:56:01
(UTC+00:00)

Cosmos 1606 Rocket - Pass Details

Date: 29 October 2020
Orbit: 603 x 631 km, 82.5° (Epoch: 29 November)

Event Time Altitude Azimuth Distance (km) Brightness Sun altitude
Rises 17:38:05 0° 195° (SSW) 2,862 7.4 -7.9°
Reaches altitude 10° 17:40:19 10° 199° (SSW) 1,966 6.6 -8.3°
Maximum altitude 17:44:37 62° 280° (W) 700 4.2 -9.1°
Drops below altitude 10° 17:49:01 10° 1° (N) 2,000 6.1 -9.9°
Sets 17:51:17 0° 5° (N) 2,915 6.9 -10.3°
